Regional Weather Roundup
Issued by NWS Mt. Holly, NJ

Home | Current Version | Previous Version | Text Only | Print | Product List | Glossary On
Versions: 1 2 3 4 5 6 7 8 9 10 11 12 13 14 15 16 17 18 19 20 21 22 23 24 25 26 27 28 29 30 31 32 33 34 35 36 37 38 39 40 41 42 43 44 45 46 47
000
ASUS41 KPHI 281012
RWRPHI

REGIONAL WEATHER ROUNDUP
NATIONAL WEATHER SERVICE MOUNT HOLLY NJ
600 AM EDT TUE JUL 28 2015

NOTE:  "FAIR" INDICATES FEW OR NO CLOUDS BELOW 12,000 FEET WITH NO
SIGNIFICANT WEATHER AND/OR OBSTRUCTIONS TO VISIBILITY.

 * = STATION DOES NOT REPORT PRECIPITATION (E.G. RAIN, SNOW, ETC.)
        OR FOG.

NJZ015>026-281100-
SOUTHERN NEW JERSEY

CITY           SKY/WX    TMP DP  RH WIND       PRES   REMARKS
POMONA         MOCLDY    73  71  93 S3        30.01S
RIO GRANDE*    CLEAR     70  68  94 CALM      30.02R
MILLVILLE      CLEAR     70  68  93 CALM      30.01R FOG
WRIGHTSTOWN    FOG       68  68 100 CALM      29.98S VSB 1/4
MOUNT HOLLY    FOG       67  67 100 CALM      30.00S VSB 1
TRENTON        PTCLDY    70  67  90 CALM      30.00S

$$
NJZ001>014-281100-
NORTHERN NEW JERSEY

CITY           SKY/WX    TMP DP  RH WIND       PRES   REMARKS
SUSSEX         FOG       65  64  97 CALM      30.02S VSB 1/4
ANDOVER*         N/A     65  64  97 CALM      30.03R
MORRISTOWN     FOG       66  63  88 CALM      30.01R VSB<1/4
NEWARK         PTCLDY    72  69  90 S5        30.00R
TETERBORO      CLEAR     72  67  84 CALM      29.99R
CALDWELL       CLEAR     70  67  90 CALM      30.01S
SOMERVILLE     CLOUDY    66  64  93 CALM      29.99S FOG
ALLAIRE*       CLEAR     72  64  78 W3        30.01S
TOMS RIVER*    CLOUDY    68  68 100 CALM      30.01S VSB 1/4

$$
PAZ043-044-047-054-055-060>062-066>071-281100-
EASTERN PENNSYLVANIA

CITY           SKY/WX    TMP DP  RH WIND       PRES   REMARKS
PHILADELPHIA   MOCLDY    75  71  87 W5        30.01S
NORTH PHILA    CLEAR     71  66  84 NE3       30.02S
BLUE BELL      MOCLDY    68  68 100 CALM      30.01S
DOYLESTOWN     CLEAR     67  67 100 CALM      30.01S FOG
QUAKERTOWN*    CLEAR     66  66 100 CALM      30.03S
POTTSTOWN      FOG       68  68 100 CALM      30.03S VSB 1/4
LANCASTER      CLOUDY    69  68  96 CALM      30.02S FOG
COATESVILLE    FOG       68  68 100 CALM      30.04R VSB<1/4
READING        FOG       70  68  93 CALM      30.01S VSB 1
ALLENTOWN      CLEAR     68  66  93 NW3       30.02R FOG
MOUNT POCONO   FOG       63  62  97 CALM      30.08S VSB 1/4
HAZLETON       FOG       63  63 100 CALM      30.10S VSB<1/4
WILKES BARRE   CLEAR     65  63  93 E3        30.05S FOG

$$
DEZALL-MDZ008-012-015-019-020-281100-
DELAWARE AND EASTERN MARYLAND

CITY           SKY/WX    TMP DP  RH WIND       PRES   REMARKS
WILMINGTON     CLEAR     72  71  97 CALM      30.01S
DOVER          CLEAR     72  72 100 W3        29.99S
GEORGETOWN     CLEAR     70  69  97 CALM      30.01S FOG
EASTON         CLEAR     73  73 100 CALM      30.04S
ABERDEEN       PTCLDY    72  70  94 CALM      30.01  FOG
PATUXENT       CLEAR     72  70  93 CALM      29.99S
OCEAN CITY     PTCLDY    73  70  90 CALM      30.00S
WALLOPS ISLAND MOCLDY    74  73  97 CALM      30.01S
CAMBRIDGE      MOCLDY    72  68  88 CALM      29.99S
SALISBURY      CLEAR     69  68  96 CALM      30.00S FOG

$$
PAZ001-021-NYZ056-072-MDZ011-DCZ001-281100-
OTHER NEARBY LOCATIONS

CITY           SKY/WX    TMP DP  RH WIND       PRES   REMARKS
HARRISBURG     CLOUDY    73  71  93 E3        30.01S FOG
WILLIAMSPORT   FOG       68  66  93 NW5       30.03S VSB 1
BINGHAMTON     CLEAR     66  64  93 W3        30.07S
NEW YORK CITY  CLEAR     76  68  76 W3        30.03R
BALTIMORE      PTCLDY    73  71  93 CALM      30.00R FOG
WASHINGTON DC  PTCLDY    77  72  84 CALM      30.00S

$$



USA.gov is the U.S. government's official web portal to all federal, state and local government web resources and services.